Regional Weather Roundup
Issued by NWS

Home | Current Version | Previous Version | Graphics & Text | Print | Product List | Glossary On
Versions: 1 2 3 4 5 6 7 8 9 10 11 12 13 14 15 16 17 18 19 20 21 22 23 24 25 26 27 28 29 30 31 32 33 34 35 36 37 38 39 40 41 42 43 44 45 46 47 48 49 50
133
ASUS45 KTFX 211110
RWRMT
MONTANA REGIONAL WEATHER ROUNDUP
NATIONAL WEATHER SERVICE GREAT FALLS MT
500 AM MDT SAT OCT 21 2017

NOTE: "FAIR" INDICATES FEW OR NO CLOUDS BELOW 12000 FEET WITH NO
SIGNIFICANT WEATHER AND/OR OBSTRUCTIONS TO VISIBILITY.

MTZ001>007-043-211200-
WEST OF THE DIVIDE

CITY           SKY/WX    TMP DP  RH WIND       PRES   REMARKS
KALISPELL      CLOUDY    40  36  86 S8        29.88R
MISSOULA       MOCLDY    37  34  89 NE8       29.95R WCI  31
BUTTE          CLOUDY    34  23  64 W8        29.91R WCI  27
MULLAN PASS    MIX PCPN  26  22  84 VRB6      29.89R WCI  19
ANACONDA         N/A     34  21  60 S5        29.91S
DEER LODGE       N/A     34  27  75 CALM      29.92R
EUREKA           N/A     39  36  87 MISG        N/A
LIBBY            N/A     37  37 100 CALM      29.88R
PLAINS           N/A     38  34  85 CALM      29.95R
$$

MTZ008-052>055-211200-
SOUTHWEST MONTANA

CITY           SKY/WX    TMP DP  RH WIND       PRES   REMARKS
BOZEMAN        CLOUDY    35  27  72 S5        29.92R
DILLON         CLOUDY    33  21  61 S9        29.93R WCI  25
W YELLOWSTONE  CLOUDY    25  23  93 SW9       29.94F WCI  15
ENNIS          CLOUDY    36  21  55 SE10      29.97S WCI  28
THREE FORKS      N/A     38  22  52 W3        29.91R
$$

MTZ009-010-012-014-046-048-049-054-211200-
EAST SLOPES AND CENTRAL MONTANA

CITY           SKY/WX    TMP DP  RH WIND       PRES   REMARKS
CUT BANK       CLEAR     32  27  81 W9        29.73R WCI  24
GREAT FALLS    CLEAR     35  24  64 SW14      29.77R WCI  26
MALMSTROM AFB  CLEAR     38  26  63 SW15G24   29.77R WCI  29
HELENA         CLEAR     41  25  53 W10       29.88R
BOWMANS CRNR   MOCLDY    33  23  67 S7        29.77R WCI  26
CHOTEAU          N/A     43  21  42 VRB5G14   29.76R
FAIRFIELD        N/A     38  23  55 SE3       29.75R
POWER            N/A     33  25  73 SW12      29.75R WCI  24
RAYNESFORD     CLOUDY    40  23  49 SW23G31   29.75R
ULM              N/A     40  24  52 SW17      29.78R
$$

MTZ011-013-016-021-045-047-050-051-211200-
NORTH CENTRAL MONTANA

CITY           SKY/WX    TMP DP  RH WIND       PRES   REMARKS
HAVRE          CLOUDY    42  37  82 W17       29.68R
LEWISTOWN      CLOUDY    38  24  57 W14       29.75R WCI  30
N BAR RANCH      N/A     39  19  45 NW25G35   29.69R WCI  28
CHINOOK          N/A     43  39  87 W16G25    29.65R
DENTON         CLOUDY    42  24  47 W21       29.70R
GEYSER         MOCLDY    36  25  62 W12       29.75R WCI  28
GRASS RANGE    MOCLDY    42  23  46 W28G44    29.66R
JUDITH GAP     CLOUDY    38  19  45 W10       29.77R WCI  32
WINIFRED       MOCLDY    42  24  49 W17G25    29.71R
$$

MTZ017>020-022>027-061-062-211200-
NORTHEAST MONTANA

CITY           SKY/WX    TMP DP  RH WIND       PRES   REMARKS
GLASGOW        CLOUDY    43  40  89 W21G31    29.54R
JORDAN           N/A     46  32  58 W22G32    29.63R
SIDNEY         MOCLDY    47  37  68 W21       29.51R
WOLF POINT     CLOUDY    47  37  68 W23G33    29.53R
MALTA          CLOUDY    43  41  93 W22G30    29.60R
PLENTYWOOD       N/A     45  37  76 W15       29.42R
POPLAR           N/A     46  37  71 W21       29.52R
SCOBEY           N/A     46  34  63 W14       29.47R
$$

MTZ028>42-056>058-211200-
SOUTHCENTRAL AND SOUTHEAST MONTANA

CITY           SKY/WX    TMP DP  RH WIND       PRES   REMARKS
BAKER          MOCLDY    45  31  58 W22G30    29.62R
BILLINGS       PTCLDY    43  20  39 W24G33    29.75R
LIVINGSTON     PTCLDY    38  20  48 W21       29.85R WCI  28
MILES CITY     PTCLDY    46  31  55 W24G30    29.67R
BIG TIMBER     CLEAR     37  21  52 W23G33    29.85R WCI  26
FORSYTH          N/A     46  28  49 W23G32    29.69R
HARLOWTON        N/A     35  21  55 W25       29.77R WCI  23
LAUREL           N/A     43  19  39 W26G37    29.78R
$$

REGIONAL REPORTS...DAKOTAS

CITY           SKY/WX    TMP DP  RH WIND       PRES   REMARKS
WILLISTON        N/A    N/A N/A N/A MISG      29.46R
MINOT          PTCLDY    54  36  50 SW20      29.36R
DICKINSON      MOCLDY    46  35  65 W26G33    29.49R
BEACH            N/A     45  34  65 W20G30    29.59R
CROSBY           N/A     46  37  71 SW16      29.39R
TIOGA            N/A     45  39  81 W20G26    29.44R
WATFORD CITY     N/A     46  37  71 W21G29    29.49R
BISMARCK       LGT RAIN  55  40  56 W25G33    29.47R
GRAND FORKS    CLEAR     65  59  81 S16       29.33R
FARGO          CLEAR     64  58  80 S20G37    29.40R
BUFFALO SD       N/A     48  30  49 W30G37    29.55R
RAPID CITY     CLOUDY    50  31  48 NW21G31   29.63R
$$

REGIONAL REPORTS...WYOMING/IDAHO/WASHINGTON

CITY           SKY/WX    TMP DP  RH WIND       PRES   REMARKS
GILLETTE       CLOUDY    42  20  41 NW22G33   29.74R
SHERIDAN       CLEAR     43  18  36 N8G20     29.77R
BUFFALO WY     CLOUDY    38  13  35 W7        29.77R
CODY           CLEAR     40  14  34 W12G26    29.84
YELLOWSTONE LA   N/A     22  18  85 W7        29.94S WCI  13
IDAHO FALLS    CLOUDY    32  28  85 SW17      30.03R WCI  21
SALMON         CLOUDY    37  32  82 SW9       30.01R WCI  30
BOISE          CLEAR     34  28  79 CALM      30.10R
SPOKANE        MOCLDY    36  35  96 S8        29.95R WCI  30
$$

REGIONAL REPORTS...ALBERTA

CITY           SKY/WX    TMP DP  RH WIND       PRES   REMARKS
EDMONTON       CLEAR     28  27  93 W8        29.59R WCI  20
CALGARY        CLEAR     30  28  93 VRB3      29.65R
LETHBRIDGE     CLEAR     37  27  65 W17       29.69R WCI  28
MEDICINE HAT   MOCLDY    39  37  93 W13G18    29.64R WCI  32
$$

REGIONAL REPORTS...SASKATCHEWAN

CITY           SKY/WX    TMP DP  RH WIND       PRES   REMARKS
SWIFT CURRENT  LGT RAIN  39  37  93 W24G36    29.43R WCI  28
REGINA         CLOUDY    41  36  81 W12       29.33R
SASKATOON      MOCLDY    43  37  81 NW9       29.38R
$$




USA.gov is the U.S. government's official web portal to all federal, state and local government web resources and services.